Zurück zum Katalog

STARLINK-11288

AktivKommunikationVLEO
NORAD 61002·PAYLOAD·🇺🇸 United States

Gestartet Sep 5, 2024 von Cape Canaveral Space Force Station

Loading…

Nächste Überflüge (nächste 24 Stunden)

TLE

AktuellSource: CelesTrak SupGP

Epoche: Sep 14, 2026, 21:24 UTC

1 61002C 24158N   26257.89215278  .00056810  00000+0  46797-3 0  2575
2 61002  53.1571  68.4105 0001096  86.8035 255.6395 15.69680436    17

Verfolge STARLINK-11288 in Echtzeit mit AllMySat

Download on the App Store